STARLINK-35477, 66338

Orbit data source: Space-Track

STARLINK-35477, 66338 is a payload satellite owned by SpaceX/Seattle (US) in LEO that was launched on Thu, 06 Nov 2025 UTC via an FALCON 9 launch vehicle from the Air Force Eastern Test Range (AFETR). Payload-class satellites include a variety of spacecraft equipped with specific instruments for various scientific and technological missions. These include communications satellites like Starlink; space stations such as the ISS; scientific satellites like the Hubble; Earth observation satellites from companies like Planet Labs, Umbra, and HawkEye 360; GPS; miniature CubeSats for education and research; and military/defense satellites.

Loading next visibility...
Identifier
66338, 2025-253V
Orbit
LEO
Country
Flag of USUS
Related business
Manufacturer
SpaceX/Seattle
Mission
Operational Commercial Communications
Bus & Motor
STARLINK V2MO, Unknown motor
Mass
575 kg wet, ~530 kg dry
Launch date (UTC)
2025-11-06 (7 months ago)
Launch vehicle
FALCON 9
Launch site
Air Force Eastern Test Range (AFETR)
Object type
Payload
Rocket body
Debris
Shape & HBR
Box + 2 Pan, 17.7 m
Radar Cross Section
36.964 m², Large (>1 m²)

Expand to show TLE details & history
Last TLE update: 5 hours ago

TLE from 5 hours ago
0 STARLINK-35477
1 66338U 25253V   26170.94105374  .00034188  00000-0  12438-2 0  9996
2 66338  43.0141 354.9603 0006396 304.6098  55.4150 15.27627537 35884
Epoch: 2026-06-19T22:35Z
TLE epoch observation values (Epoch: 2026-06-19T22:35:07.043Z)
Latitude
-0.00002°
Longitude
108.01812°
Altitude
480.195 km
Speed
7.629 km/s
True Right ascension
23h 39m 50s
True Declination
0° 00' 00"
Sunlit
Object was in daylight at epoch
Visualization orbit readout
Latitude
Unknown
Longitude
Unknown
Altitude
Unknown
Speed
Unknown
Apparent Right ascension
Unknown
Apparent Declination
Unknown
Sunlit
N/A
Visualization observer readout
Local Sidereal Time
14:36:10
Azimuth
Unknown
Elevation
Unknown
Doppler factor
Unknown
Orbital elements
Apogee altitude
489.239 km
Perigee altitude
480.46 km
Semi-major axis
6,862.987 km
Eccentricity
0.00064
Inclination
43.0141°
RAAN
354.9603°
Arg. of periapsis
304.6098°
True anomaly
55.47537°
Mean anomaly
55.415°
Eccentric anomaly
55.44518°
Mean motion
3.81745 °/min
Orbital period
94.3 mins
BSTAR
0.0012438
Loading maneuver chart data...
Computing Atmospheric mass density...
Loading historical data...
Loading historical data...
Loading historical data...
Loading historical data...
Loading historical data...
Loading historical data...
Loading historical data...

Documentation

Showing up to 5 results
|